• In Italy
  • List of Countries
  • For 7 days
  • Water Temperature
  • Satellite Maps
  • Weather Map
  • Weather Widgets
  • user-avatar
    Login

    Hourly Weather Madras

    Today, 19 September, Tuesday

    Time Temperature Precipitation Wind Pressure Humidity
    00:00 +30°C° 0.1 mm 5 mps 755 mmHg 65%
    01:00 +30°C° 0.1 mm 5 mps 755 mmHg 65%
    02:00 +30°C° 0.1 mm 6 mps 754 mmHg 64%
    03:00 +30°C° 0 mm 6 mps 754 mmHg 65%
    04:00 +29°C° 0 mm 6 mps 754 mmHg 65%
    05:00 +28°C° 0 mm 4 mps 754 mmHg 69%
    06:00 +30°C° 0 mm 5 mps 755 mmHg 65%
    07:00 +32°C° 0 mm 5 mps 755 mmHg 61%
    08:00 +33°C° 0 mm 6 mps 756 mmHg 57%
    09:00 +35°C° 0 mm 5 mps 755 mmHg 52%
    10:00 +36°C° 0 mm 5 mps 755 mmHg 47%
    11:00 +39°C° 0 mm 5 mps 755 mmHg 43%
    12:00 +40°C° 0 mm 5 mps 754 mmHg 41%
    13:00 +40°C° 0 mm 5 mps 753 mmHg 39%
    14:00 +41°C° 0 mm 5 mps 753 mmHg 37%
    15:00 +40°C° 0 mm 5 mps 753 mmHg 39%
    16:00 +39°C° 0 mm 5 mps 753 mmHg 41%
    17:00 +37°C° 0 mm 5 mps 752 mmHg 44%
    18:00 +36°C° 0 mm 5 mps 753 mmHg 46%
    19:00 +35°C° 0 mm 5 mps 753 mmHg 47%
    20:00 +34°C° 0 mm 5 mps 754 mmHg 49%
    21:00 +34°C° 0 mm 5 mps 754 mmHg 51%
    22:00 +33°C° 0 mm 5 mps 754 mmHg 52%
    23:00 +33°C° 0 mm 6 mps 754 mmHg 54%

    Tomorrow, 20 September, Wednesday

    Time Temperature Precipitation Wind Pressure Humidity
    00:00 +32°C° 0 mm 6 mps 754 mmHg 55%
    01:00 +30°C° 0 mm 6 mps 754 mmHg 57%
    02:00 +30°C° 0 mm 6 mps 753 mmHg 58%
    03:00 +29°C° 0 mm 6 mps 753 mmHg 60%
    04:00 +29°C° 0 mm 6 mps 754 mmHg 61%
    05:00 +28°C° 0 mm 6 mps 754 mmHg 63%
    06:00 +29°C° 0 mm 6 mps 754 mmHg 61%
    07:00 +30°C° 0 mm 6 mps 755 mmHg 58%
    08:00 +32°C° 0 mm 7 mps 755 mmHg 56%
    09:00 +34°C° 0 mm 6 mps 755 mmHg 51%
    10:00 +35°C° 0 mm 6 mps 755 mmHg 46%
    11:00 +38°C° 0 mm 6 mps 755 mmHg 41%
    12:00 +38°C° 0 mm 6 mps 754 mmHg 39%
    13:00 +39°C° 0 mm 6 mps 753 mmHg 37%
    14:00 +40°C° 0 mm 5 mps 752 mmHg 34%
    15:00 +39°C° 0 mm 6 mps 752 mmHg 37%
    16:00 +38°C° 0 mm 6 mps 751 mmHg 40%
    17:00 +38°C° 0 mm 6 mps 751 mmHg 43%
    18:00 +36°C° 0 mm 6 mps 752 mmHg 47%
    19:00 +35°C° 0 mm 6 mps 752 mmHg 50%
    20:00 +34°C° 0 mm 6 mps 753 mmHg 54%
    21:00 +33°C° 0.1 mm 6 mps 753 mmHg 55%
    22:00 +33°C° 0.1 mm 6 mps 754 mmHg 56%
    23:00 +33°C° 0.1 mm 6 mps 754 mmHg 57%

    Day after tomorrow, 21 September, Thursday

    Time Temperature Precipitation Wind Pressure Humidity
    00:00 +32°C° 0.1 mm 6 mps 754 mmHg 58%
    01:00 +32°C° 0.1 mm 5 mps 753 mmHg 59%
    02:00 +30°C° 0.1 mm 5 mps 753 mmHg 60%
    03:00 +30°C° 0 mm 5 mps 753 mmHg 60%
    04:00 +29°C° 0 mm 5 mps 753 mmHg 61%
    05:00 +29°C° 0 mm 5 mps 754 mmHg 62%
    06:00 +30°C° 0 mm 5 mps 754 mmHg 59%
    07:00 +32°C° 0 mm 5 mps 755 mmHg 56%
    08:00 +32°C° 0 mm 6 mps 755 mmHg 52%
    09:00 +34°C° 0 mm 5 mps 755 mmHg 47%
    10:00 +36°C° 0 mm 5 mps 754 mmHg 42%
    11:00 +39°C° 0 mm 5 mps 754 mmHg 36%
    12:00 +40°C° 0 mm 5 mps 753 mmHg 34%
    13:00 +40°C° 0 mm 5 mps 752 mmHg 32%
    14:00 +41°C° 0 mm 5 mps 751 mmHg 30%
    15:00 +40°C° 0 mm 5 mps 751 mmHg 34%
    16:00 +39°C° 0 mm 6 mps 751 mmHg 39%
    17:00 +38°C° 0 mm 6 mps 751 mmHg 43%
    18:00 +35°C° 0 mm 6 mps 752 mmHg 49%
    19:00 +34°C° 0 mm 7 mps 753 mmHg 56%
    20:00 +33°C° 0 mm 7 mps 754 mmHg 62%
    21:00 +32°C° 0 mm 7 mps 754 mmHg 64%
    22:00 +32°C° 0 mm 7 mps 754 mmHg 65%
    23:00 +32°C° 0 mm 7 mps 754 mmHg 67%

    22 September, Friday

    Time Temperature Precipitation Wind Pressure Humidity
    00:00 +32°C° 0.1 mm 7 mps 754 mmHg 67%
    01:00 +30°C° 0.1 mm 6 mps 753 mmHg 67%
    02:00 +30°C° 0.1 mm 6 mps 753 mmHg 67%
    03:00 +30°C° 0.1 mm 5 mps 753 mmHg 67%
    04:00 +29°C° 0.1 mm 5 mps 754 mmHg 67%
    05:00 +29°C° 0.1 mm 4 mps 754 mmHg 67%
    06:00 +30°C° 0 mm 4 mps 754 mmHg 63%
    07:00 +31°C° 0 mm 3 mps 755 mmHg 59%
    08:00 +33°C° 0 mm 3 mps 756 mmHg 54%
    09:00 +35°C° 0 mm 3 mps 755 mmHg 50%
    10:00 +36°C° 0 mm 2 mps 755 mmHg 46%
    11:00 +37°C° 0 mm 2 mps 755 mmHg 42%
    12:00 +38°C° 0 mm 2 mps 754 mmHg 40%
    13:00 +38°C° 0 mm 2 mps 753 mmHg 38%
    14:00 +39°C° 0 mm 3 mps 752 mmHg 37%
    15:00 +38°C° 0 mm 3 mps 752 mmHg 41%
    16:00 +37°C° 0 mm 4 mps 752 mmHg 46%
    17:00 +36°C° 0 mm 4 mps 752 mmHg 51%
    18:00 +35°C° 0 mm 4 mps 753 mmHg 56%
    19:00 +34°C° 0 mm 4 mps 754 mmHg 60%
    20:00 +32°C° 0 mm 4 mps 754 mmHg 65%
    21:00 +32°C° 0 mm 4 mps 755 mmHg 66%
    22:00 +32°C° 0 mm 4 mps 755 mmHg 67%
    23:00 +31°C° 0 mm 3 mps 755 mmHg 69%

    23 September, Saturday

    Time Temperature Precipitation Wind Pressure Humidity
    00:00 +30°C° 0.3 mm 4 mps 754 mmHg 69%
    01:00 +30°C° 0.3 mm 4 mps 754 mmHg 70%
    02:00 +30°C° 0.3 mm 4 mps 753 mmHg 71%
    03:00 +30°C° 0.1 mm 4 mps 754 mmHg 72%
    04:00 +29°C° 0.1 mm 4 mps 754 mmHg 73%
    05:00 +29°C° 0.1 mm 4 mps 754 mmHg 74%
    06:00 +30°C° 0 mm 4 mps 755 mmHg 69%
    07:00 +33°C° 0 mm 4 mps 755 mmHg 63%
    08:00 +34°C° 0 mm 4 mps 756 mmHg 58%
    09:00 +35°C° 0 mm 3 mps 756 mmHg 53%
    10:00 +37°C° 0 mm 3 mps 755 mmHg 48%
    11:00 +38°C° 0 mm 2 mps 755 mmHg 43%
    12:00 +38°C° 0 mm 3 mps 754 mmHg 45%
    13:00 +37°C° 0 mm 3 mps 754 mmHg 46%
    14:00 +37°C° 0 mm 3 mps 753 mmHg 48%
    15:00 +36°C° 0 mm 3 mps 753 mmHg 52%
    16:00 +35°C° 0 mm 4 mps 753 mmHg 56%
    17:00 +35°C° 0 mm 4 mps 753 mmHg 60%
    18:00 +34°C° 0.1 mm 4 mps 754 mmHg 64%
    19:00 +33°C° 0.1 mm 3 mps 755 mmHg 67%
    20:00 +31°C° 0.1 mm 3 mps 755 mmHg 71%
    21:00 +31°C° 0.2 mm 3 mps 755 mmHg 71%
    22:00 +31°C° 0.2 mm 3 mps 755 mmHg 72%
    23:00 +30°C° 0.2 mm 3 mps 755 mmHg 73%

    24 September, Sunday

    Time Temperature Precipitation Wind Pressure Humidity
    00:00 +30°C° 0.6 mm 4 mps 755 mmHg 73%
    01:00 +30°C° 0.6 mm 4 mps 754 mmHg 74%
    02:00 +30°C° 0.6 mm 5 mps 754 mmHg 75%
    03:00 +29°C° 1 mm 5 mps 754 mmHg 76%
    04:00 +29°C° 1 mm 5 mps 754 mmHg 77%
    05:00 +29°C° 1 mm 5 mps 755 mmHg 78%
    06:00 +30°C° 0.2 mm 5 mps 755 mmHg 72%
    07:00 +32°C° 0.2 mm 5 mps 756 mmHg 67%
    08:00 +34°C° 0.2 mm 5 mps 756 mmHg 62%
    09:00 +35°C° 0.1 mm 5 mps 756 mmHg 56%
    10:00 +37°C° 0.1 mm 4 mps 755 mmHg 50%
    11:00 +38°C° 0.1 mm 4 mps 755 mmHg 44%
    12:00 +38°C° 0 mm 4 mps 754 mmHg 44%
    13:00 +38°C° 0 mm 4 mps 753 mmHg 44%
    14:00 +38°C° 0 mm 4 mps 753 mmHg 44%
    15:00 +37°C° 0 mm 4 mps 753 mmHg 48%
    16:00 +36°C° 0 mm 4 mps 753 mmHg 52%
    17:00 +36°C° 0 mm 5 mps 753 mmHg 57%
    18:00 +35°C° 0.5 mm 5 mps 753 mmHg 61%
    19:00 +34°C° 0.5 mm 4 mps 754 mmHg 65%
    20:00 +33°C° 0.5 mm 4 mps 754 mmHg 69%
    21:00 +33°C° 0.9 mm 5 mps 754 mmHg 70%
    22:00 +32°C° 0.9 mm 5 mps 754 mmHg 71%
    23:00 +32°C° 0.9 mm 5 mps 754 mmHg 72%
    Show more